Regional Weather Roundup
Issued by NWS State College, PA

Home | Current Version | Previous Version | Graphics & Text | Print | Product List | Glossary On
Versions: 1 2 3 4 5 6 7 8 9 10 11 12 13 14 15 16 17 18 19 20 21 22 23 24 25 26 27 28 29 30 31 32 33 34 35 36 37 38 39 40 41 42 43 44 45 46 47 48 49 50
000
ASUS41 KCTP 241303
RWRCTP

REGIONAL WEATHER ROUNDUP
NATIONAL WEATHER SERVICE STATE COLLEGE PA
900 AM EDT SAT SEP 24 2016

Note: "fair" indicates few or no clouds below 12,000 feet with no
significant weather and/or obstructions to visibility.

* = STATION THAT DOES NOT REPORT PRECIPITATION /E.G. RAIN...SNOW...ETC/
    THUNDER OR FOG.

PAZ002>004-007>009-013>016-020>023-029>032-241400-
WESTERN PENNSYLVANIA

CITY           SKY/WX    TMP DP  RH WIND       PRES   REMARKS
ERIE           SUNNY     61  50  67 E10       30.23R
MEADVILLE      CLOUDY    57  51  80 NE13      30.22R
FRANKLIN*        N/A     57  52  82 NE7       30.21R
NEW CASTLE     CLOUDY    62  59  90 N6        30.20R
BEAVER COUNTY  CLOUDY    63  59  88 N7        30.18
BUTLER*        CLOUDY    63  57  82 N5        30.20R
PITTSBURGH INT CLOUDY    65  62  90 N10       30.16R
PITTSBURGH     CLOUDY    66  60  81 N7        30.15R HAZE
INDIANA*       CLOUDY    61  57  88 E10       30.20R
LATROBE        CLOUDY    66  66 100 NE13      30.16R
WASHINGTON CO* CLOUDY    64  61  88 N5        30.16S
$$

PAZ004>006-010>012-017>019-024>028-033>037-041-042-045-046-049>053-241400-
CENTRAL PENNSYLVANIA

CITY           SKY/WX    TMP DP  RH WIND       PRES   REMARKS
BRADFORD       CLOUDY    50  47  89 E3        30.22R
DUBOIS         CLOUDY    56  48  74 E9        30.19R
CLEARFIELD     CLOUDY    57  50  77 NE7       30.20R
JOHNSTOWN      FOG       60  60 100 NE12      30.17R VSB<1/4
ALTOONA        CLOUDY    59  51  75 N13       30.18S
STATE COLLEGE  CLOUDY    59  46  63 NE10      30.18R
WILLIAMSPORT   MOSUNNY   61  46  57 NW6       30.18R
SELINSGROVE    PTSUNNY   63  48  58 N12       30.17R
FT INDIANTOWN  CLOUDY    61  56  84 VRB5      30.13R
CAPITAL CITY   CLOUDY    65  54  67 N8        30.14R
HARRISBURG     CLOUDY    65  57  75 N9        30.13R
YORK           CLOUDY    65  59  81 N8        30.12R
$$

PAZ038>040-043-044-047-048-054-055-060>062-067>071-241400-
EASTERN PENNSYLVANIA

CITY           SKY/WX    TMP DP  RH WIND       PRES   REMARKS
SCRANTON       CLOUDY    59  50  72 N12       30.16R
MOUNT POCONO     N/A     54  49  83 N8        30.15S
ALLENTOWN      CLOUDY    60  52  74 NE14      30.13S
QUAKERTOWN*    CLOUDY    57  54  88 NE7       30.15R
READING        CLOUDY    59  56  89 NE7       30.13R
LANCASTER      LGT RAIN  64  59  83 NE14      30.12R
COATESVILLE    CLOUDY    63  57  82 NE8       30.13R
POTTSTOWN      CLOUDY    61  55  81 NE8       30.14R
BLUE BELL      CLOUDY    59  54  82 NE6       30.11S
DOYLESTOWN     RAIN      61  57  87 NE7       30.12R
WILLOW GROVE   NOT AVBL
NORTH PHILA    CLOUDY    62  56  80 NE13      30.13R
PHILADELPHIA   CLOUDY    64  56  75 NE15      30.11R
$$




USA.gov is the U.S. government's official web portal to all federal, state and local government web resources and services.